Time,TemperatureF,DewpointF,PressureIn,WindDirection,WindDirectionDegrees,WindSpeedMPH,WindSpeedGustMPH,Humidity,HourlyPrecipIn,Conditions,Clouds,dailyrainin,SoftwareType,DateUTC
2013-06-27 00:00:00,58.2,55.9,30.09,West,274,0.0,0.0,92,0.00,,SKC,0.00,VWS V13.01,2013-06-27 07:00:00,
2013-06-27 01:30:00,57.9,55.9,30.09,South,185,0.0,0.0,93,0.00,,SKC,0.00,VWS V13.01,2013-06-27 08:30:00,
2013-06-27 02:00:00,57.7,55.7,30.09,South,185,0.0,0.0,93,0.00,,SKC,0.00,VWS V13.01,2013-06-27 09:00:00,
2013-06-27 02:30:00,57.7,55.7,30.08,South,172,0.0,0.0,93,0.00,,SKC,0.00,VWS V13.01,2013-06-27 09:30:00,
2013-06-27 03:00:00,57.5,55.5,30.07,South,172,0.0,0.0,93,0.00,,SKC,0.00,VWS V13.01,2013-06-27 10:00:00,
2013-06-27 03:30:00,57.3,55.6,30.07,South,172,0.0,0.0,94,0.00,,SKC,0.00,VWS V13.01,2013-06-27 10:30:00,
2013-06-27 04:30:00,56.9,55.8,30.06,SSE,167,0.0,0.0,96,0.04,,SKC,0.04,VWS V13.01,2013-06-27 11:30:00,
2013-06-27 05:00:00,56.9,55.8,30.06,SSE,167,0.0,0.0,96,0.04,,SKC,0.04,VWS V13.01,2013-06-27 12:00:00,
2013-06-27 05:30:00,56.6,55.5,30.07,South,180,0.0,0.0,96,0.05,,SKC,0.06,VWS V13.01,2013-06-27 12:30:00,
2013-06-27 06:00:00,56.1,55.0,30.07,South,184,0.0,0.0,96,0.04,,SKC,0.08,VWS V13.01,2013-06-27 13:00:00,
2013-06-27 06:30:00,55.2,54.1,30.07,South,184,0.0,0.0,96,0.06,,SKC,0.10,VWS V13.01,2013-06-27 13:30:00,
2013-06-27 07:00:00,55.3,54.5,30.07,WNW,286,0.0,0.0,97,0.05,,SKC,0.11,VWS V13.01,2013-06-27 14:00:00,
2013-06-27 07:30:00,55.3,54.5,30.07,WNW,286,0.0,0.0,97,0.03,,SKC,0.11,VWS V13.01,2013-06-27 14:30:00,
2013-06-27 08:00:00,56.1,55.3,30.07,WNW,286,0.0,0.0,97,0.01,,SKC,0.11,VWS V13.01,2013-06-27 15:00:00,
2013-06-27 08:30:00,56.8,56.0,30.08,WNW,286,0.0,0.0,97,0.00,,SKC,0.11,VWS V13.01,2013-06-27 15:30:00,
2013-06-27 10:00:00,58.2,56.8,30.10,NW,308,1.0,4.0,95,0.00,,SKC,0.11,VWS V13.01,2013-06-27 17:00:00,
2013-06-27 10:30:00,57.7,56.3,30.10,WNW,294,2.0,6.0,95,0.00,,SKC,0.11,VWS V13.01,2013-06-27 17:30:00,
2013-06-27 11:00:00,59.5,57.8,30.11,WNW,300,1.0,4.0,94,0.00,,SKC,0.11,VWS V13.01,2013-06-27 18:00:00,
2013-06-27 11:30:00,60.3,58.0,30.12,NW,308,2.0,4.0,92,0.00,,SKC,0.11,VWS V13.01,2013-06-27 18:30:00,
2013-06-27 12:00:00,60.5,58.2,30.12,NW,306,2.0,5.0,92,0.00,,SKC,0.11,VWS V13.01,2013-06-27 19:00:00,
2013-06-27 12:30:00,65.2,60.6,30.12,NW,307,2.0,6.0,85,0.00,,SKC,0.11,VWS V13.01,2013-06-27 19:30:00,
2013-06-27 13:00:00,65.1,59.5,30.13,WNW,293,4.0,6.0,82,0.00,,SKC,0.11,VWS V13.01,2013-06-27 20:00:00,
2013-06-27 13:30:00,64.6,60.3,30.14,WNW,289,7.0,9.0,86,0.00,,SKC,0.11,VWS V13.01,2013-06-27 20:30:00,
2013-06-27 14:00:00,65.0,59.7,30.15,NW,309,8.0,10.0,83,0.00,,SKC,0.11,VWS V13.01,2013-06-27 21:00:00,
2013-06-27 15:00:00,64.3,60.0,30.17,WNW,283,3.0,8.0,86,0.00,,SKC,0.11,VWS V13.01,2013-06-27 22:00:00,
2013-06-27 15:30:00,65.7,60.4,30.17,WNW,285,2.0,7.0,83,0.00,,SKC,0.11,VWS V13.01,2013-06-27 22:30:00,
2013-06-27 16:00:00,67.2,61.9,30.18,WNW,297,1.0,7.0,83,0.00,,SKC,0.11,VWS V13.01,2013-06-27 23:00:00,
2013-06-27 18:00:00,65.9,61.3,30.21,WNW,292,1.0,6.0,85,0.00,,SKC,0.11,VWS V13.01,2013-06-28 01:00:00,
2013-06-27 18:30:00,66.5,61.2,30.21,NNW,327,1.0,6.0,83,0.00,,SKC,0.11,VWS V13.01,2013-06-28 01:30:00,
2013-06-27 19:00:00,67.5,61.1,30.21,WNW,290,1.0,5.0,80,0.00,,SKC,0.11,VWS V13.01,2013-06-28 02:00:00,
2013-06-27 19:30:00,66.4,61.1,30.22,NW,306,1.0,5.0,83,0.00,,SKC,0.11,VWS V13.01,2013-06-28 02:30:00,
2013-06-27 20:30:00,64.8,60.2,30.22,North,350,0.0,3.0,85,0.00,,SKC,0.11,VWS V13.01,2013-06-28 03:30:00,
2013-06-27 21:00:00,63.1,59.8,30.22,North,350,0.0,0.0,89,0.00,,SKC,0.11,VWS V13.01,2013-06-28 04:00:00,
2013-06-27 21:30:00,61.2,58.6,30.22,North,350,0.0,0.0,91,0.00,,SKC,0.11,VWS V13.01,2013-06-28 04:30:00,
2013-06-27 22:00:00,59.6,57.6,30.23,North,350,0.0,0.0,93,0.00,,SKC,0.11,VWS V13.01,2013-06-28 05:00:00,
2013-06-27 22:30:00,59.0,57.3,30.24,WNW,298,0.0,2.0,94,0.00,,SKC,0.11,VWS V13.01,2013-06-28 05:30:00,
2013-06-27 23:30:00,58.4,57.3,30.24,NW,318,0.0,1.0,96,0.00,,SKC,0.11,VWS V13.01,2013-06-28 06:30:00,